QPF
0.01 0.00 0.00 0.00 0.00 0.01 0.02 0.02 0.02 0.01 0.01 0.00 0.00 0.00 0.01 0.00 0.00 0.00 0.00 0.00 0.00 0.00 0.00 0.00 0.00 0.00 0.00 0.00 0.00 0.00 0.00 0.00 0.00 0.00 0.00 0.00 0.00 0.00 0.00 0.01 0.01 0.01 0.01 0.01
0.01 0.00 0.00 0.00 0.00 0.00 0.00 0.00 0.01 0.00 0.01 0.00 0.00 0.00 0.00 0.00 0.00 0.00 0.00 0.00 0.00 0.00 0.00 0.00 0.00 0.00 0.00 0.00 0.00 0.00 0.00 0.00 0.00 0.00 0.00 0.00 0.00 0.00 0.00 0.01 0.01 0.01 0.01 0.01
0.01 0.00 0.01 0.01 0.00 0.00 0.00 0.00 0.00 0.00 0.00 0.00 0.00 0.00 0.00 0.00 0.00 0.00 0.00 0.00 0.00 0.00 0.00 0.00 0.00 0.00 0.00 0.00 0.00 0.00 0.01 0.01 0.00 0.00 0.00 0.01 0.00 0.00 0.00 0.00 0.01 0.00 0.00 0.01
0.02 0.01 0.01 0.00 0.00 0.00 0.00 0.00 0.00 0.00 0.00 0.00 0.00 0.00 0.00 0.00 0.00 0.00 0.00 0.00 0.00 0.00 0.00 0.00 0.00 0.00 0.00 0.00 0.00 0.00 0.01 0.01 0.00 0.01 0.01 0.01 0.01 0.00 0.00 0.00 0.00 0.00 0.00 0.00
0.03 0.02 0.01 0.00 0.00 0.00 0.00 0.00 0.00 0.00 0.00 0.00 0.00 0.00 0.00 0.00 0.00 0.00 0.00 0.00 0.00 0.00 0.00 0.00 0.00 0.00 0.00 0.00 0.00 0.00 0.01 0.01 0.01 0.02 0.02 0.02 0.03 0.01 0.01 0.00 0.00 0.00 0.00 0.01
0.03 0.02 0.01 0.00 0.00 0.00 0.00 0.00 0.00 0.00 0.00 0.00 0.00 0.00 0.00 0.00 0.00 0.00 0.00 0.00 0.00 0.00 0.00 0.00 0.00 0.00 0.00 0.00 0.00 0.00 0.00 0.01 0.01 0.01 0.02 0.01 0.04 0.02 0.01 0.01 0.00 0.00 0.01 0.01
0.02 0.02 0.01 0.00 0.00 0.00 0.00 0.01 0.00 0.00 0.00 0.00 0.00 0.00 0.00 0.00 0.00 0.00 0.00 0.00 0.00 0.00 0.00 0.00 0.00 0.01 0.00 0.00 0.00 0.00 0.00 0.00 0.00 0.01 0.02 0.01 0.03 0.02 0.01 0.01 0.00 0.00 0.01 0.01
0.02 0.03 0.01 0.00 0.00 0.00 0.00 0.00 0.00 0.00 0.00 0.00 0.00 0.00 0.00 0.00 0.00 0.00 0.00 0.00 0.00 0.00 0.00 0.00 0.00 0.01 0.00 0.00 0.00 0.00 0.00 0.00 0.00 0.00 0.01 0.01 0.01 0.02 0.02 0.01 0.01 0.01 0.01 0.01
0.01 0.01 0.00 0.00 0.00 0.00 0.00 0.00 0.00 0.00 0.00 0.00 0.00 0.00 0.00 0.00 0.00 0.00 0.00 0.00 0.00 0.00 0.00 0.00 0.00 0.01 0.00 0.00 0.00 0.00 0.00 0.00 0.00 0.00 0.00 0.01 0.01 0.01 0.01 0.01 0.01 0.01 0.01 0.01
0.01 0.00 0.00 0.00 0.00 0.00 0.00 0.00 0.00 0.00 0.00 0.00 0.00 0.00 0.00 0.00 0.00 0.00 0.00 0.00 0.00 0.00 0.00 0.00 0.00 0.00 0.01 0.00 0.00 0.00 0.00 0.00 0.00 0.00 0.00 0.00 0.01 0.01 0.01 0.01 0.01 0.01 0.01 0.01
0.01 0.00 0.00 0.00 0.00 0.00 0.00 0.00 0.00 0.00 0.00 0.00 0.00 0.00 0.00 0.00 0.00 0.00 0.00 0.00 0.00 0.00 0.00 0.00 0.00 0.00 0.00 0.00 0.00 0.00 0.00 0.00 0.00 0.00 0.00 0.00 0.00 0.00 0.00 0.00 0.01 0.01 0.01 0.01
0.01 0.00 0.00 0.00 0.00 0.00 0.00 0.00 0.00 0.00 0.00 0.00 0.00 0.00 0.00 0.00 0.00 0.00 0.00 0.00 0.00 0.00 0.00 0.00 0.00 0.00 0.00 0.00 0.00 0.00 0.00 0.00 0.00 0.00 0.00 0.00 0.00 0.00 0.00 0.00 0.00 0.00 0.00 0.00
0.00 0.00 0.00 0.00 0.00 0.00 0.00 0.00 0.00 0.00 0.00 0.00 0.00 0.00 0.00 0.00 0.00 0.00 0.00 0.00 0.00 0.00 0.00 0.00 0.00 0.00 0.00 0.00 0.00 0.00 0.00 0.00 0.00 0.00 0.00 0.00 0.00 0.00 0.00 0.00 0.00 0.00 0.00 0.00
0.00 0.00 0.00 0.00 0.00 0.00 0.00 0.00 0.00 0.00 0.00 0.00 0.00 0.00 0.00 0.00 0.00 0.00 0.00 0.00 0.00 0.00 0.00 0.00 0.00 0.00 0.00 0.00 0.00 0.00 0.01 0.01 0.00 0.00 0.00 0.00 0.00 0.00 0.00 0.00 0.00 0.00 0.00 0.00
0.00 0.00 0.00 0.00 0.00 0.00 0.00 0.00 0.00 0.00 0.00 0.00 0.00 0.00 0.00 0.00 0.00 0.00 0.00 0.00 0.00 0.00 0.00 0.00 0.00 0.00 0.00 0.01 0.01 0.01 0.01 0.01 0.01 0.01 0.00 0.00 0.00 0.00 0.00 0.00 0.00 0.00 0.00 0.00
0.00 0.00 0.00 0.00 0.00 0.00 0.00 0.00 0.00 0.00 0.00 0.00 0.00 0.00 0.00 0.00 0.00 0.00 0.00 0.00 0.00 0.00 0.00 0.00 0.00 0.00 0.00 0.01 0.01 0.01 0.01 0.01 0.01 0.01 0.01 0.01 0.00 0.00 0.00 0.00 0.00 0.00 0.00 0.00
0.01 0.01 0.00 0.00 0.00 0.00 0.00 0.00 0.00 0.00 0.00 0.00 0.00 0.00 0.00 0.00 0.00 0.00 0.00 0.01 0.00 0.00 0.00 0.00 0.00 0.00 0.00 0.00 0.01 0.01 0.01 0.01 0.01 0.01 0.01 0.01 0.01 0.01 0.01 0.00 0.00 0.00 0.00 0.00
0.01 0.01 0.00 0.00 0.00 0.00 0.00 0.00 0.00 0.00 0.00 0.00 0.00 0.00 0.00 0.00 0.00 0.00 0.00 0.01 0.01 0.00 0.00 0.00 0.00 0.00 0.00 0.00 0.01 0.01 0.01 0.01 0.01 0.01 0.01 0.01 0.01 0.01 0.01 0.01 0.01 0.00 0.00 0.00
0.01 0.01 0.00 0.00 0.00 0.00 0.00 0.01 0.01 0.00 0.01 0.01 0.01 0.01 0.01 0.00 0.00 0.00 0.00 0.00 0.01 0.00 0.00 0.00 0.01 0.01 0.00 0.00 0.01 0.01 0.01 0.01 0.01 0.01 0.01 0.01 0.01 0.01 0.01 0.01 0.01 0.00 0.00 0.01
0.00 0.00 0.00 0.00 0.00 0.00 0.00 0.01 0.01 0.01 0.01 0.01 0.01 0.01 0.01 0.00 0.00 0.00 0.00 0.00 0.01 0.01 0.01 0.01 0.01 0.01 0.01 0.01 0.01 0.01 0.01 0.01 0.01 0.01 0.01 0.01 0.01 0.01 0.01 0.01 0.01 0.00 0.01 0.01
0.00 0.00 0.00 0.00 0.00 0.00 0.01 0.01 0.01 0.01 0.01 0.01 0.01 0.00 0.00 0.00 0.00 0.00 0.00 0.01 0.01 0.01 0.01 0.01 0.01 0.01 0.01 0.01 0.01 0.01 0.01 0.01 0.01 0.01 0.01 0.01 0.01 0.01 0.01 0.01 0.01 0.01 0.01 0.01
0.01 0.00 0.00 0.00 0.00 0.00 0.00 0.01 0.01 0.01 0.01 0.01 0.01 0.00 0.00 0.00 0.00 0.01 0.01 0.01 0.01 0.01 0.01 0.01 0.01 0.01 0.01 0.01 0.01 0.01 0.01 0.01 0.01 0.01 0.01 0.01 0.01 0.02 0.02 0.01 0.01 0.01 0.01 0.01
0.01 0.01 0.00 0.00 0.00 0.01 0.01 0.01 0.01 0.01 0.01 0.01 0.01 0.01 0.01 0.01 0.01 0.01 0.01 0.01 0.01 0.01 0.01 0.01 0.01 0.01 0.01 0.01 0.01 0.01 0.01 0.01 0.01 0.01 0.01 0.01 0.01 0.02 0.02 0.01 0.01 0.02 0.01 0.01
0.01 0.01 0.01 0.01 0.01 0.01 0.01 0.01 0.01 0.02 0.02 0.01 0.01 0.01 0.01 0.01 0.01 0.01 0.01 0.01 0.01 0.01 0.01 0.01 0.01 0.01 0.01 0.01 0.01 0.01 0.01 0.01 0.01 0.01 0.01 0.01 0.01 0.01 0.02 0.01 0.01 0.01 0.01 0.01
0.01 0.02 0.02 0.02 0.02 0.02 0.02 0.02 0.02 0.02 0.02 0.02 0.02 0.01 0.01 0.01 0.01 0.01 0.01 0.01 0.01 0.01 0.00 0.01 0.01 0.01 0.01 0.01 0.01 0.01 0.01 0.01 0.01 0.01 0.01 0.01 0.01 0.01 0.02 0.02 0.02 0.02 0.01 0.01
0.01 0.01 0.02 0.01 0.01 0.01 0.01 0.02 0.02 0.02 0.02 0.02 0.02 0.02 0.01 0.01 0.01 0.01 0.01 0.01 0.00 0.00 0.01 0.01 0.01 0.01 0.01 0.01 0.01 0.01 0.01 0.01 0.01 0.01 0.01 0.01 0.01 0.01 0.01 0.02 0.02 0.02 0.02 0.01
0.01 0.01 0.01 0.01 0.01 0.01 0.01 0.01 0.01 0.02 0.02 0.02 0.02 0.02 0.01 0.01 0.01 0.01 0.01 0.01 0.00 0.00 0.00 0.01 0.01 0.01 0.02 0.02 0.02 0.02 0.01 0.01 0.01 0.01 0.01 0.01 0.01 0.01 0.02 0.02 0.02 0.02 0.02 0.02
MSLP
1016.75 1016.64 1016.45 1016.17 1015.78 1015.30 1014.72 1014.09 1013.42 1012.75 1012.11 1011.56 1011.10 1010.76 1010.53 1010.41 1010.38 1010.39 1010.42 1010.43 1010.39 1010.30 1010.15 1009.94 1009.68 1009.40 1009.11 1008.84 1008.59 1008.38 1008.21 1008.09 1008.02 1008.00 1008.03 1008.09 1008.19 1008.32 1008.46 1008.60 1008.74 1008.86 1008.96 1009.05
1017.26 1017.04 1016.71 1016.28 1015.75 1015.14 1014.48 1013.80 1013.13 1012.51 1011.95 1011.48 1011.12 1010.87 1010.71 1010.62 1010.60 1010.61 1010.62 1010.61 1010.57 1010.47 1010.32 1010.13 1009.89 1009.61 1009.32 1009.03 1008.75 1008.50 1008.28 1008.13 1008.03 1008.01 1008.06 1008.17 1008.34 1008.55 1008.77 1008.99 1009.18 1009.35 1009.47 1009.55
1017.54 1017.19 1016.73 1016.15 1015.48 1014.77 1014.04 1013.33 1012.67 1012.09 1011.60 1011.23 1010.95 1010.78 1010.68 1010.65 1010.65 1010.67 1010.70 1010.70 1010.67 1010.60 1010.48 1010.31 1010.10 1009.84 1009.55 1009.23 1008.92 1008.61 1008.35 1008.14 1008.01 1007.97 1008.02 1008.17 1008.39 1008.67 1008.97 1009.27 1009.53 1009.75 1009.91 1010.01
1017.58 1017.11 1016.52 1015.82 1015.06 1014.26 1013.48 1012.76 1012.12 1011.59 1011.17 1010.87 1010.67 1010.56 1010.51 1010.52 1010.55 1010.59 1010.63 1010.66 1010.66 1010.63 1010.55 1010.43 1010.25 1010.02 1009.73 1009.40 1009.05 1008.70 1008.37 1008.11 1007.93 1007.86 1007.90 1008.07 1008.33 1008.67 1009.04 1009.40 1009.74 1010.01 1010.20 1010.33
1017.43 1016.86 1016.17 1015.39 1014.55 1013.71 1012.92 1012.21 1011.60 1011.12 1010.76 1010.51 1010.36 1010.29 1010.28 1010.30 1010.34 1010.39 1010.45 1010.49 1010.53 1010.54 1010.51 1010.44 1010.31 1010.11 1009.83 1009.50 1009.12 1008.72 1008.35 1008.03 1007.80 1007.69 1007.72 1007.88 1008.17 1008.54 1008.96 1009.38 1009.77 1010.09 1010.33 1010.48
1017.14 1016.49 1015.73 1014.91 1014.05 1013.21 1012.44 1011.76 1011.20 1010.77 1010.45 1010.25 1010.13 1010.07 1010.06 1010.07 1010.11 1010.15 1010.20 1010.25 1010.31 1010.35 1010.36 1010.34 1010.25 1010.08 1009.83 1009.50 1009.11 1008.69 1008.28 1007.91 1007.64 1007.49 1007.49 1007.64 1007.93 1008.31 1008.75 1009.21 1009.64 1010.00 1010.27 1010.45
1016.75 1016.04 1015.26 1014.42 1013.58 1012.78 1012.06 1011.44 1010.94 1010.56 1010.29 1010.11 1010.00 1009.93 1009.90 1009.89 1009.89 1009.91 1009.94 1009.98 1010.04 1010.10 1010.14 1010.15 1010.10 1009.96 1009.74 1009.42 1009.04 1008.61 1008.17 1007.78 1007.47 1007.29 1007.26 1007.38 1007.65 1008.03 1008.47 1008.94 1009.39 1009.77 1010.07 1010.27
1016.26 1015.52 1014.73 1013.92 1013.13 1012.39 1011.75 1011.20 1010.77 1010.44 1010.20 1010.04 1009.93 1009.86 1009.80 1009.75 1009.71 1009.69 1009.69 1009.72 1009.77 1009.83 1009.89 1009.91 1009.88 1009.77 1009.57 1009.28 1008.91 1008.48 1008.04 1007.64 1007.31 1007.11 1007.05 1007.14 1007.38 1007.73 1008.15 1008.61 1009.06 1009.45 1009.76 1009.98
1015.65 1014.90 1014.12 1013.36 1012.63 1011.97 1011.40 1010.94 1010.57 1010.30 1010.11 1009.96 1009.86 1009.77 1009.69 1009.61 1009.55 1009.50 1009.48 1009.49 1009.52 1009.58 1009.63 1009.66 1009.64 1009.54 1009.36 1009.09 1008.73 1008.33 1007.90 1007.51 1007.18 1006.96 1006.88 1006.95 1007.15 1007.46 1007.86 1008.29 1008.72 1009.10 1009.42 1009.65
1014.91 1014.15 1013.39 1012.67 1012.00 1011.42 1010.93 1010.54 1010.24 1010.02 1009.86 1009.75 1009.66 1009.57 1009.49 1009.42 1009.35 1009.29 1009.27 1009.27 1009.29 1009.34 1009.38 1009.40 1009.38 1009.29 1009.12 1008.86 1008.53 1008.15 1007.76 1007.39 1007.08 1006.86 1006.77 1006.82 1006.99 1007.27 1007.62 1008.02 1008.42 1008.79 1009.10 1009.35
1014.01 1013.24 1012.50 1011.82 1011.21 1010.69 1010.26 1009.93 1009.68 1009.51 1009.38 1009.30 1009.24 1009.18 1009.13 1009.09 1009.05 1009.02 1009.02 1009.03 1009.07 1009.11 1009.15 1009.16 1009.12 1009.03 1008.86 1008.62 1008.31 1007.97 1007.61 1007.28 1007.00 1006.81 1006.73 1006.77 1006.92 1007.16 1007.48 1007.84 1008.20 1008.55 1008.85 1009.10
1012.99 1012.21 1011.49 1010.83 1010.26 1009.77 1009.38 1009.08 1008.87 1008.72 1008.63 1008.58 1008.56 1008.56 1008.57 1008.59 1008.61 1008.65 1008.70 1008.75 1008.82 1008.87 1008.91 1008.91 1008.86 1008.76 1008.59 1008.36 1008.08 1007.78 1007.47 1007.19 1006.96 1006.82 1006.76 1006.81 1006.95 1007.17 1007.45 1007.77 1008.10 1008.41 1008.70 1008.95
1011.92 1011.14 1010.42 1009.78 1009.22 1008.75 1008.38 1008.09 1007.88 1007.75 1007.68 1007.66 1007.69 1007.75 1007.83 1007.94 1008.05 1008.18 1008.31 1008.43 1008.53 1008.62 1008.66 1008.66 1008.61 1008.49 1008.33 1008.11 1007.86 1007.60 1007.35 1007.13 1006.97 1006.88 1006.87 1006.94 1007.08 1007.29 1007.54 1007.82 1008.11 1008.39 1008.64 1008.87
1010.89 1010.12 1009.41 1008.77 1008.22 1007.75 1007.37 1007.07 1006.85 1006.71 1006.64 1006.65 1006.72 1006.84 1007.00 1007.20 1007.42 1007.64 1007.86 1008.06 1008.22 1008.34 1008.41 1008.41 1008.35 1008.24 1008.08 1007.88 1007.67 1007.46 1007.27 1007.12 1007.03 1007.00 1007.04 1007.14 1007.30 1007.50 1007.73 1007.97 1008.22 1008.45 1008.66 1008.85
1010.00 1009.24 1008.55 1007.93 1007.38 1006.90 1006.49 1006.16 1005.92 1005.76 1005.68 1005.69 1005.78 1005.95 1006.18 1006.46 1006.77 1007.09 1007.39 1007.67 1007.89 1008.06 1008.15 1008.17 1008.12 1008.02 1007.87 1007.70 1007.53 1007.37 1007.25 1007.17 1007.15 1007.19 1007.28 1007.42 1007.59 1007.79 1007.99 1008.20 1008.39 1008.56 1008.72 1008.87
1009.29 1008.57 1007.91 1007.31 1006.77 1006.28 1005.86 1005.50 1005.22 1005.02 1004.92 1004.91 1005.01 1005.20 1005.47 1005.81 1006.18 1006.57 1006.95 1007.29 1007.57 1007.77 1007.90 1007.94 1007.92 1007.84 1007.72 1007.58 1007.46 1007.36 1007.30 1007.29 1007.34 1007.44 1007.58 1007.75 1007.93 1008.11 1008.29 1008.45 1008.59 1008.70 1008.80 1008.89
1008.76 1008.10 1007.50 1006.93 1006.41 1005.93 1005.50 1005.11 1004.79 1004.56 1004.42 1004.39 1004.46 1004.65 1004.93 1005.29 1005.70 1006.13 1006.55 1006.93 1007.25 1007.50 1007.66 1007.74 1007.74 1007.69 1007.62 1007.53 1007.46 1007.41 1007.42 1007.47 1007.58 1007.72 1007.90 1008.08 1008.26 1008.43 1008.57 1008.69 1008.77 1008.82 1008.86 1008.88
1008.37 1007.78 1007.24 1006.73 1006.25 1005.79 1005.36 1004.96 1004.62 1004.35 1004.17 1004.10 1004.14 1004.30 1004.56 1004.91 1005.32 1005.76 1006.19 1006.60 1006.95 1007.23 1007.42 1007.54 1007.59 1007.59 1007.56 1007.53 1007.51 1007.53 1007.59 1007.70 1007.84 1008.01 1008.20 1008.39 1008.56 1008.70 1008.80 1008.86 1008.89 1008.89 1008.87 1008.84
1008.03 1007.52 1007.05 1006.60 1006.18 1005.75 1005.34 1004.95 1004.60 1004.31 1004.09 1003.98 1003.98 1004.09 1004.32 1004.63 1005.01 1005.43 1005.86 1006.27 1006.64 1006.94 1007.17 1007.33 1007.44 1007.49 1007.53 1007.56 1007.60 1007.68 1007.78 1007.92 1008.09 1008.28 1008.46 1008.63 1008.77 1008.87 1008.94 1008.95 1008.94 1008.89 1008.83 1008.76
1007.65 1007.21 1006.81 1006.43 1006.06 1005.69 1005.31 1004.95 1004.60 1004.31 1004.07 1003.93 1003.89 1003.95 1004.12 1004.39 1004.72 1005.11 1005.52 1005.92 1006.29 1006.62 1006.89 1007.10 1007.27 1007.39 1007.50 1007.59 1007.70 1007.82 1007.96 1008.13 1008.30 1008.48 1008.65 1008.79 1008.89 1008.95 1008.98 1008.96 1008.91 1008.83 1008.75 1008.66
1007.19 1006.81 1006.47 1006.15 1005.83 1005.51 1005.18 1004.85 1004.53 1004.24 1004.01 1003.84 1003.77 1003.80 1003.92 1004.13 1004.42 1004.77 1005.15 1005.54 1005.91 1006.26 1006.57 1006.84 1007.07 1007.27 1007.45 1007.61 1007.78 1007.94 1008.12 1008.29 1008.46 1008.62 1008.76 1008.86 1008.93 1008.95 1008.94 1008.90 1008.82 1008.74 1008.65 1008.56
1006.67 1006.32 1006.02 1005.74 1005.47 1005.20 1004.91 1004.62 1004.34 1004.07 1003.85 1003.68 1003.59 1003.59 1003.67 1003.85 1004.09 1004.40 1004.75 1005.13 1005.51 1005.89 1006.24 1006.56 1006.86 1007.13 1007.38 1007.62 1007.84 1008.04 1008.24 1008.42 1008.58 1008.72 1008.82 1008.89 1008.91 1008.91 1008.87 1008.81 1008.74 1008.65 1008.57 1008.50
1006.14 1005.80 1005.51 1005.26 1005.02 1004.78 1004.54 1004.29 1004.04 1003.81 1003.61 1003.46 1003.37 1003.35 1003.41 1003.55 1003.77 1004.05 1004.38 1004.75 1005.14 1005.54 1005.93 1006.31 1006.68 1007.02 1007.34 1007.63 1007.90 1008.14 1008.36 1008.54 1008.69 1008.80 1008.88 1008.91 1008.91 1008.88 1008.83 1008.76 1008.69 1008.62 1008.56 1008.51
1005.69 1005.34 1005.05 1004.80 1004.58 1004.36 1004.14 1003.93 1003.72 1003.52 1003.35 1003.22 1003.14 1003.12 1003.18 1003.30 1003.50 1003.76 1004.08 1004.45 1004.86 1005.28 1005.71 1006.14 1006.56 1006.97 1007.35 1007.69 1008.01 1008.28 1008.51 1008.70 1008.84 1008.94 1008.99 1009.00 1008.97 1008.93 1008.87 1008.80 1008.74 1008.68 1008.64 1008.61
1005.40 1005.03 1004.72 1004.46 1004.23 1004.02 1003.82 1003.63 1003.45 1003.29 1003.15 1003.04 1002.99 1002.98 1003.04 1003.16 1003.35 1003.61 1003.93 1004.31 1004.72 1005.17 1005.63 1006.11 1006.57 1007.03 1007.46 1007.85 1008.20 1008.50 1008.75 1008.95 1009.08 1009.16 1009.20 1009.19 1009.15 1009.09 1009.03 1008.96 1008.90 1008.85 1008.81 1008.79
1005.31 1004.92 1004.59 1004.30 1004.06 1003.84 1003.64 1003.47 1003.32 1003.18 1003.07 1003.00 1002.97 1002.99 1003.06 1003.19 1003.39 1003.65 1003.98 1004.36 1004.78 1005.25 1005.74 1006.25 1006.75 1007.25 1007.71 1008.14 1008.52 1008.84 1009.10 1009.30 1009.43 1009.51 1009.53 1009.51 1009.46 1009.39 1009.32 1009.24 1009.18 1009.12 1009.07 1009.03
1005.42 1005.01 1004.65 1004.34 1004.07 1003.84 1003.65 1003.48 1003.34 1003.24 1003.16 1003.12 1003.11 1003.16 1003.26 1003.41 1003.63 1003.90 1004.24 1004.63 1005.07 1005.55 1006.07 1006.59 1007.12 1007.64 1008.13 1008.58 1008.97 1009.31 1009.57 1009.77 1009.90 1009.97 1009.99 1009.95 1009.89 1009.81 1009.72 1009.63 1009.54 1009.46 1009.38 1009.30
Thickness
5461 5467 5465 5464 5462 5461 5460 5465 5467 5480 5484 5493 5494 5492 5492 5492 5490 5488 5486 5484 5483 5480 5478 5478 5478 5477 5477 5476 5476 5476 5475 5475 5474 5474 5473 5473 5473 5472 5472 5472 5472 5471 5470 5469
5450 5458 5457 5456 5460 5459 5459 5463 5465 5469 5477 5489 5489 5486 5485 5484 5483 5482 5480 5479 5477 5476 5474 5472 5471 5470 5469 5468 5467 5467 5465 5465 5464 5464 5463 5462 5462 5462 5461 5461 5460 5460 5459 5458
5445 5447 5446 5447 5461 5459 5459 5463 5463 5463 5476 5479 5478 5478 5477 5477 5477 5476 5475 5473 5471 5469 5468 5466 5464 5463 5461 5460 5459 5457 5456 5455 5455 5454 5453 5452 5452 5451 5450 5449 5449 5448 5447 5447
5434 5435 5430 5464 5470 5466 5460 5462 5464 5466 5470 5471 5471 5470 5471 5472 5470 5469 5468 5466 5464 5462 5461 5459 5457 5455 5453 5451 5449 5448 5447 5446 5445 5444 5442 5441 5441 5440 5439 5438 5438 5437 5436 5436
5425 5428 5445 5461 5461 5457 5450 5453 5460 5458 5459 5460 5461 5459 5462 5466 5465 5462 5460 5458 5456 5454 5453 5451 5449 5447 5445 5442 5440 5439 5438 5437 5435 5434 5432 5431 5430 5429 5429 5428 5427 5426 5426 5424
5421 5423 5433 5457 5455 5454 5449 5445 5456 5454 5451 5450 5450 5443 5452 5459 5457 5454 5452 5450 5448 5446 5444 5442 5441 5438 5435 5433 5431 5430 5429 5428 5426 5425 5423 5422 5420 5419 5418 5418 5417 5416 5414 5413
5415 5418 5435 5448 5444 5444 5438 5444 5450 5449 5446 5443 5440 5441 5446 5448 5447 5445 5443 5441 5439 5437 5435 5434 5432 5430 5427 5425 5423 5422 5420 5419 5417 5416 5414 5413 5411 5410 5408 5407 5406 5404 5403 5403
5411 5415 5429 5437 5434 5434 5439 5443 5444 5442 5441 5438 5437 5437 5438 5437 5435 5434 5432 5431 5430 5427 5426 5425 5423 5421 5419 5416 5415 5413 5411 5409 5408 5406 5405 5404 5401 5399 5398 5397 5395 5393 5392 5391
5416 5426 5435 5431 5432 5435 5436 5435 5436 5434 5433 5431 5429 5428 5428 5427 5425 5424 5423 5421 5420 5418 5416 5415 5414 5413 5410 5409 5406 5404 5402 5400 5398 5397 5395 5393 5391 5389 5387 5386 5384 5383 5382 5380
5409 5422 5428 5426 5426 5428 5427 5425 5427 5427 5425 5424 5422 5420 5419 5417 5416 5414 5413 5412 5411 5409 5407 5406 5405 5404 5402 5400 5398 5396 5393 5391 5389 5387 5385 5383 5382 5380 5378 5376 5375 5374 5372 5370
5402 5413 5418 5421 5420 5420 5419 5419 5419 5419 5419 5417 5415 5414 5412 5410 5408 5406 5405 5403 5402 5400 5398 5397 5397 5395 5393 5391 5389 5387 5385 5383 5380 5379 5376 5374 5373 5371 5369 5368 5366 5364 5362 5359
5404 5412 5409 5414 5416 5415 5413 5412 5412 5411 5410 5410 5409 5408 5406 5404 5402 5400 5397 5395 5393 5391 5390 5389 5388 5387 5385 5383 5381 5378 5376 5374 5372 5369 5367 5365 5363 5361 5361 5359 5358 5356 5354 5351
5405 5406 5405 5408 5408 5408 5407 5407 5406 5405 5404 5403 5403 5402 5400 5398 5395 5393 5391 5389 5387 5384 5382 5381 5379 5378 5377 5375 5372 5370 5368 5366 5363 5361 5359 5357 5355 5353 5351 5349 5348 5346 5344 5342
5399 5398 5398 5400 5400 5400 5400 5401 5399 5398 5398 5397 5396 5394 5392 5390 5388 5386 5384 5383 5380 5377 5375 5373 5371 5370 5369 5367 5365 5362 5360 5358 5356 5353 5351 5349 5347 5345 5343 5341 5338 5336 5335 5333
5393 5393 5392 5393 5392 5392 5392 5391 5390 5389 5390 5390 5388 5386 5385 5383 5381 5379 5378 5376 5374 5371 5369 5367 5365 5363 5362 5360 5358 5355 5353 5351 5349 5346 5344 5342 5340 5337 5335 5332 5330 5327 5325 5323
5387 5386 5386 5386 5386 5385 5383 5383 5382 5383 5383 5383 5381 5380 5378 5377 5375 5373 5371 5369 5367 5365 5363 5361 5359 5357 5355 5353 5351 5349 5347 5346 5343 5340 5337 5335 5332 5329 5327 5324 5321 5319 5316 5313
5379 5379 5380 5380 5380 5380 5379 5378 5378 5378 5378 5376 5375 5373 5371 5369 5367 5366 5364 5363 5361 5360 5358 5356 5354 5352 5349 5347 5345 5343 5341 5339 5338 5334 5331 5328 5325 5322 5319 5316 5314 5311 5307 5305
5379 5380 5379 5378 5376 5376 5375 5374 5373 5372 5371 5370 5368 5366 5364 5363 5362 5360 5357 5356 5354 5352 5351 5350 5349 5346 5344 5342 5340 5338 5335 5333 5330 5327 5325 5322 5319 5316 5312 5309 5306 5302 5299 5296
5375 5374 5374 5373 5372 5371 5370 5369 5367 5366 5364 5362 5360 5359 5358 5356 5354 5352 5350 5349 5347 5346 5345 5344 5344 5341 5339 5337 5335 5332 5330 5327 5325 5322 5319 5317 5313 5309 5306 5302 5299 5295 5291 5288
5369 5368 5367 5367 5367 5365 5364 5363 5361 5359 5357 5355 5353 5351 5350 5348 5347 5345 5343 5342 5342 5342 5340 5339 5337 5335 5333 5331 5330 5327 5325 5322 5319 5316 5313 5309 5306 5302 5299 5295 5292 5288 5284 5281
5361 5361 5361 5360 5359 5359 5358 5356 5354 5352 5350 5349 5347 5345 5343 5341 5339 5338 5337 5335 5335 5334 5334 5334 5331 5329 5328 5326 5325 5321 5318 5315 5312 5309 5306 5302 5299 5296 5292 5288 5285 5281 5278 5274
5353 5353 5354 5353 5351 5350 5349 5348 5347 5346 5344 5343 5341 5338 5336 5334 5332 5331 5330 5330 5329 5328 5327 5326 5324 5323 5322 5320 5317 5314 5311 5308 5305 5302 5299 5296 5292 5289 5285 5282 5278 5275 5272 5268
5346 5346 5346 5345 5344 5342 5341 5340 5339 5338 5337 5336 5334 5332 5331 5329 5327 5326 5324 5323 5322 5322 5320 5319 5319 5318 5316 5313 5310 5307 5304 5301 5298 5295 5291 5288 5285 5282 5279 5276 5272 5269 5265 5262
5339 5338 5338 5337 5336 5335 5334 5333 5332 5332 5330 5329 5327 5326 5325 5323 5321 5320 5319 5318 5317 5316 5313 5313 5313 5312 5310 5305 5302 5299 5296 5294 5291 5288 5284 5281 5278 5275 5272 5269 5266 5263 5260 5257
5331 5331 5330 5330 5329 5329 5328 5327 5326 5325 5323 5322 5321 5320 5318 5317 5315 5314 5312 5310 5310 5308 5306 5306 5306 5304 5301 5298 5295 5292 5289 5286 5284 5281 5278 5275 5271 5268 5265 5262 5259 5256 5254 5251
5325 5325 5325 5325 5324 5323 5322 5322 5321 5320 5318 5317 5315 5313 5311 5310 5308 5306 5304 5303 5301 5301 5298 5297 5296 5295 5293 5290 5287 5284 5281 5279 5276 5273 5270 5267 5264 5262 5259 5255 5253 5250 5248 5245
5319 5319 5319 5318 5318 5318 5317 5316 5315 5314 5313 5311 5309 5306 5305 5303 5301 5299 5297 5295 5293 5292 5291 5289 5288 5286 5284 5282 5279 5276 5274 5271 5268 5266 5263 5260 5258 5255 5253 5250 5248 5245 5243 5241